GFSSW_700_spd_132.txt.gz
Wind_Speed
7 7 7 7 7 7 6 6 8 9 10 13 14 13 14 13 12 14 15 16 13 9 9 7 14 14 18 21 32 18 16 14 14 21 20 22 29 20 6 8 8 5 16 20 17
8 8 7 8 7 7 7 7 7 8 9 11 13 15 14 14 12 10 15 18 14 10 11 10 15 11 12 16 17 17 6 15 17 18 19 24 20 20 20 19 13 16 17 14 13
9 9 8 8 8 8 7 7 8 8 9 10 12 14 14 12 12 14 16 17 17 14 14 17 18 14 7 6 13 16 18 2 14 25 21 24 23 22 16 22 9 8 21 17 14
9 8 8 8 8 8 8 7 7 8 8 9 11 12 13 13 7 14 17 17 19 17 17 18 19 13 9 9 2 17 3 13 19 25 22 23 21 19 14 11 10 5 15 15 12
9 8 7 7 7 8 8 8 7 7 7 8 10 11 12 14 12 10 17 17 20 19 20 21 15 13 7 6 13 15 10 18 27 15 11 17 14 18 22 20 14 10 10 9 12
8 8 7 6 6 6 7 7 7 7 7 7 9 10 11 13 16 15 14 17 20 21 21 22 16 8 4 8 11 6 9 11 32 22 16 17 14 22 26 24 18 16 11 10 12
8 7 6 6 6 6 6 6 7 6 7 7 7 8 9 12 14 17 9 17 20 21 21 21 17 11 5 4 5 12 18 29 31 23 18 21 22 22 22 20 20 21 13 10 13
8 7 6 5 5 5 5 7 8 8 7 6 6 5 4 14 17 16 15 14 18 21 20 22 20 13 5 3 5 8 15 21 22 21 19 19 21 24 23 18 30 25 19 16 17
8 7 5 4 4 4 5 8 9 8 7 6 5 6 4 1 11 11 11 12 14 17 19 23 20 15 11 8 7 10 14 15 13 22 19 26 24 25 26 21 26 26 23 22 18
8 6 4 3 2 4 8 7 7 7 6 6 7 8 8 6 4 11 12 15 14 14 24 24 19 18 14 15 15 15 18 10 16 15 16 25 29 31 32 26 26 25 23 23 16
7 5 4 3 1 3 4 4 7 9 2 2 5 7 5 6 3 7 11 18 18 16 21 17 18 22 22 19 9 4 11 14 10 9 5 11 22 31 32 26 26 26 25 20 15
6 4 3 3 2 3 2 6 12 13 7 1 11 6 6 6 5 7 18 16 16 16 20 12 18 23 20 19 11 13 12 8 3 6 7 5 16 27 28 30 32 25 28 26 24
5 2 2 3 7 10 13 15 13 10 9 7 7 4 7 1 7 5 20 16 16 17 14 17 16 11 14 19 5 8 8 7 6 6 10 10 9 24 33 33 35 24 30 28 26
4 1 2 4 8 9 13 10 7 10 6 5 7 6 6 3 4 6 6 18 11 15 11 12 15 10 11 15 10 8 5 4 6 15 6 12 5 10 30 31 32 23 32 31 30
3 0 2 5 7 4 8 9 7 5 4 4 2 6 3 6 6 8 2 16 13 9 7 13 11 10 10 12 8 9 4 5 6 8 8 12 3 8 25 37 42 35 36 34 33
1 2 3 5 4 11 10 6 6 4 3 2 4 6 4 5 2 3 5 13 10 13 13 19 16 12 11 11 14 18 6 3 5 6 4 17 5 5 25 19 40 36 40 37 34
1 4 4 7 10 12 6 7 6 4 4 6 1 6 2 5 7 10 6 16 14 5 9 15 15 13 10 13 22 10 7 2 1 1 2 10 4 6 10 24 27 41 39 37 36
2 4 5 9 15 9 8 10 6 10 12 7 5 5 4 4 5 3 8 16 12 10 13 7 5 5 10 21 17 12 12 9 5 4 4 10 7 5 15 11 18 23 38 39 40
2 3 8 17 14 8 7 6 4 10 4 6 7 1 3 7 8 7 8 10 15 10 8 5 8 7 8 12 17 15 20 14 10 8 1 8 5 4 3 4 7 16 16 34 39
6 9 19 17 10 5 5 5 7 4 6 6 6 7 4 5 4 7 3 4 10 12 14 10 9 6 12 13 15 16 16 5 9 3 4 6 14 6 11 12 17 10 14 21 29
9 16 20 10 5 3 5 14 11 8 2 5 7 6 2 1 8 7 6 4 11 6 11 10 5 4 8 17 19 18 13 5 5 5 5 3 4 10 10 8 4 11 18 19 17
13 17 15 7 2 1 5 11 9 10 15 3 14 6 5 3 9 4 8 1 18 16 4 9 1 9 3 4 10 7 1 5 9 10 6 3 5 16 15 15 18 13 9 20 15
10 14 10 2 3 4 9 11 6 8 4 8 7 8 5 1 5 3 4 9 13 14 11 4 10 5 3 6 8 9 7 5 6 10 20 2 5 16 14 12 14 11 12 19 18
10 8 3 7 6 11 13 12 4 4 1 5 2 10 6 6 4 6 4 6 2 8 7 9 6 8 7 5 8 6 13 13 17 8 1 4 14 16 9 4 3 5 10 12 20
13 9 7 4 6 8 8 7 6 5 8 1 3 2 4 7 4 5 5 4 3 2 4 9 9 3 7 7 4 2 17 19 17 7 4 11 23 12 6 1 6 7 7 6 14
13 11 5 4 3 10 5 7 9 7 10 9 6 8 12 13 7 8 7 7 9 5 8 5 7 5 4 3 4 4 18 16 14 14 20 18 19 15 10 8 1 4 7 10 16
16 10 7 4 2 5 3 4 8 6 1 2 5 2 1 7 6 5 6 3 3 4 3 9 6 2 1 7 5 8 20 12 19 17 7 12 15 11 10 6 4 6 10 13 7

GFSSW_700_spd_135.txt.gz
Wind_Speed
8 7 7 7 7 6 6 6 6 7 8 10 12 13 13 13 12 14 15 15 11 8 9 6 4 7 7 13 21 21 16 17 18 16 16 14 14 14 3 4 9 7 15 19 18
7 6 6 6 7 7 7 6 6 6 7 9 10 13 13 12 12 12 17 17 13 8 9 5 8 11 6 15 25 13 21 18 22 20 18 20 17 20 12 10 13 21 20 19 15
7 7 6 6 6 7 7 7 6 6 6 8 9 10 13 12 12 14 15 17 16 13 14 13 11 10 14 16 13 9 9 13 17 21 19 21 21 18 15 8 8 8 19 14 13
8 7 7 7 6 6 6 6 7 6 5 6 8 9 12 13 8 14 15 17 19 17 17 15 14 10 13 8 7 10 8 22 14 16 18 23 25 21 15 6 11 10 10 12 14
7 7 6 6 6 6 6 6 7 6 6 5 6 7 10 12 12 12 16 16 18 18 19 16 14 8 6 3 4 7 15 16 19 26 19 19 23 25 16 11 14 12 14 12 15
8 7 6 6 6 6 6 7 7 6 6 5 5 5 9 12 16 10 16 17 19 19 20 20 15 10 6 7 4 4 14 16 22 26 20 17 16 29 18 19 14 12 12 13 11
8 7 6 5 5 5 6 6 6 6 5 4 4 3 6 12 16 18 8 17 19 20 21 21 18 12 4 1 5 8 15 19 28 19 13 18 16 24 22 22 18 15 10 13 10
8 6 5 4 4 4 5 6 7 6 4 4 3 1 5 10 10 11 16 12 18 21 22 23 17 13 8 4 3 3 10 15 33 25 19 20 25 28 24 23 22 18 13 12 8
7 6 4 4 3 2 4 7 9 7 6 7 7 10 9 3 1 8 11 10 16 18 22 25 20 16 11 5 6 6 6 15 10 31 21 20 25 32 23 23 26 21 15 13 12
7 5 4 2 1 2 4 6 7 10 4 8 10 11 7 4 3 7 12 14 16 18 23 23 19 17 16 13 8 8 9 6 19 9 16 25 21 37 23 32 31 23 20 18 15
5 4 2 1 1 2 2 4 5 9 5 1 8 7 4 4 3 7 12 13 19 21 26 21 19 22 18 13 11 2 4 14 15 14 8 24 26 28 29 30 32 30 26 21 17
4 2 1 0 1 3 2 2 9 10 10 4 7 6 7 9 8 7 14 18 20 23 23 18 23 24 17 13 12 8 12 12 7 5 7 6 16 25 34 39 34 33 29 24 23
4 1 1 1 4 9 7 5 9 11 11 13 3 2 4 5 6 2 15 14 17 21 19 17 21 22 14 13 8 6 7 8 7 10 9 3 6 11 25 36 33 31 29 27 26
4 2 2 3 6 9 8 5 7 9 5 9 6 3 2 5 6 2 16 14 12 16 15 15 19 13 9 11 11 6 3 4 6 8 4 15 10 23 24 35 24 30 30 27 28
4 2 3 4 7 8 7 4 7 5 3 5 6 6 4 3 6 5 2 16 11 10 14 9 6 8 9 15 18 2 6 2 1 7 5 12 4 9 27 38 37 30 35 29 31
3 3 3 5 4 12 7 6 5 2 3 4 2 3 2 3 7 4 5 7 7 9 13 14 13 10 9 3 17 12 5 9 5 4 3 7 10 5 27 30 39 36 37 34 33
1 2 4 7 12 10 6 6 5 2 3 3 2 6 4 6 10 0 6 7 9 5 5 6 12 15 10 12 24 24 16 5 3 2 4 8 8 6 6 11 17 36 38 32 33
2 5 8 14 12 8 9 9 5 6 9 2 3 5 4 3 3 2 6 12 12 13 10 3 5 8 12 15 25 21 12 10 1 3 2 8 7 4 6 8 11 20 31 35 33
3 7 10 14 13 9 8 7 7 5 1 2 5 6 2 8 6 7 7 10 9 10 7 2 0 2 3 19 28 19 9 17 4 13 2 4 5 7 3 6 9 16 18 31 35
5 11 17 13 8 6 8 10 8 3 3 2 3 3 3 5 4 2 3 15 3 9 10 9 4 3 3 14 23 20 18 15 12 3 3 3 3 4 7 3 10 14 9 10 19
9 20 16 9 4 4 8 11 12 4 2 6 5 3 1 5 6 2 1 11 15 6 4 10 6 0 6 10 19 17 21 10 19 11 5 3 6 9 8 10 7 9 7 5 17
13 20 16 8 3 1 7 10 7 10 7 5 9 0 2 2 7 4 3 7 15 12 5 4 4 3 3 4 10 9 10 15 6 5 4 2 5 16 14 14 9 8 4 13 17
15 19 14 10 6 1 7 10 2 1 4 5 4 2 1 3 4 4 5 9 9 10 9 2 5 2 8 13 10 11 11 7 9 4 5 5 3 12 13 11 9 10 13 11 12
14 13 13 8 5 6 8 5 5 4 1 1 4 6 3 3 3 3 5 6 5 7 5 4 12 11 9 7 9 9 9 10 7 5 5 4 10 14 6 4 8 8 4 3 6
13 12 12 6 2 7 7 5 9 5 4 3 4 5 5 3 1 2 3 3 2 5 2 6 11 9 15 11 13 13 9 4 7 5 6 5 14 19 9 6 5 4 5 4 5
16 14 13 4 4 6 8 11 13 9 6 4 3 5 5 4 4 8 7 7 2 7 5 5 6 9 9 7 13 19 10 11 11 7 10 17 19 12 7 3 6 5 3 3 9
19 16 12 8 2 7 5 15 13 10 6 3 3 2 2 3 6 3 3 7 5 4 6 5 4 3 7 2 3 4 10 15 14 13 11 13 11 9 5 5 3 2 3 6 9

GFSSW_700_spd_138.txt.gz
Wind_Speed
7 7 6 6 5 5 5 5 5 5 6 8 11 12 12 12 12 13 15 15 12 9 8 5 4 5 4 11 16 15 18 20 24 19 15 14 17 12 3 5 15 11 15 12 13
6 6 6 6 5 4 4 4 4 5 6 6 8 11 12 12 12 13 15 16 13 9 9 6 2 3 4 10 15 13 19 18 22 18 17 15 13 10 4 7 10 16 16 16 14
5 5 5 5 5 5 4 4 4 4 5 5 7 8 12 11 12 13 14 16 15 12 11 8 8 2 6 14 18 12 17 15 18 16 16 14 13 9 5 9 6 14 14 14 13
8 7 6 6 6 6 5 5 4 4 4 4 5 7 9 12 9 14 15 15 16 15 13 10 9 5 6 13 10 5 16 14 17 14 12 16 18 15 9 9 7 7 9 14 13
8 7 6 6 5 5 5 5 5 4 4 3 4 6 8 13 14 13 16 14 16 16 15 13 11 11 10 9 7 8 10 16 7 18 17 20 23 17 12 10 14 14 9 11 13
8 7 6 6 6 6 6 5 5 4 3 2 2 4 8 13 15 9 14 15 17 18 18 16 13 9 6 5 6 8 7 11 12 16 20 19 21 24 15 15 14 14 9 12 14
8 7 6 5 5 5 6 6 6 4 2 1 1 3 6 13 15 11 9 13 17 21 20 17 14 13 2 3 3 4 10 14 20 24 23 19 22 26 18 21 15 15 14 17 14
7 6 5 4 4 4 6 7 8 6 4 2 2 4 5 7 7 13 8 8 14 19 21 21 19 11 4 5 3 3 2 3 12 21 22 21 22 20 22 25 18 15 17 19 13
6 5 3 3 2 3 5 6 8 7 4 5 6 9 7 9 11 10 12 10 12 17 19 23 21 15 9 6 3 4 1 5 12 16 11 15 16 19 23 28 20 18 19 17 17
6 4 3 3 1 2 3 6 7 8 6 10 10 8 6 3 6 11 12 11 14 16 18 25 21 15 14 10 3 2 3 4 7 13 12 19 12 24 29 30 23 20 17 17 16
5 3 3 2 1 3 4 5 7 11 7 4 9 8 5 6 3 8 11 11 16 18 19 24 22 20 16 10 7 5 1 2 4 1 16 18 19 27 34 28 30 25 21 17 14
5 3 2 2 1 4 4 9 12 15 11 11 7 10 8 12 8 4 12 14 16 18 19 23 24 20 11 10 7 4 4 10 5 2 9 1 13 34 34 28 30 29 22 17 14
4 3 2 1 1 1 4 10 13 16 16 9 6 3 4 9 8 5 10 11 12 18 21 24 19 18 13 7 6 6 9 7 10 7 6 1 8 8 37 33 30 29 25 20 17
4 2 1 1 3 3 6 8 8 9 8 11 6 5 7 9 9 5 7 9 6 14 17 18 20 9 14 10 11 7 5 12 9 9 6 11 4 16 19 32 34 35 29 24 23
5 2 2 4 4 4 5 6 6 4 4 4 6 5 6 6 6 6 1 10 7 10 15 10 10 14 11 11 14 9 11 6 3 9 6 12 3 12 26 30 37 37 33 29 24
4 2 3 6 6 6 4 6 6 3 3 3 1 3 4 6 6 3 5 6 6 3 11 15 9 8 10 6 19 7 5 4 3 3 3 4 13 6 16 26 40 35 32 29 25
2 2 4 8 13 8 5 4 4 4 2 3 3 6 2 2 5 5 5 6 5 4 6 9 13 15 11 10 16 19 15 2 3 2 4 2 8 12 3 6 18 30 31 31 29
0 3 6 13 12 8 4 4 3 4 3 1 2 5 3 3 2 2 2 5 6 9 11 6 7 13 14 14 19 22 19 6 4 3 4 2 7 1 5 7 13 16 29 30 26
2 6 12 13 12 7 6 5 5 4 3 3 5 5 2 6 5 6 3 4 5 2 8 6 3 7 9 16 17 25 28 10 9 3 4 4 7 5 10 14 20 20 11 18 33
4 9 15 14 10 6 8 8 6 0 2 1 4 1 3 4 3 4 3 10 7 6 8 7 5 6 11 21 22 24 23 9 8 3 4 6 7 2 4 2 9 19 22 18 17
6 14 18 10 7 8 7 9 8 5 3 3 5 1 3 5 7 6 4 9 13 3 7 10 8 3 15 12 26 19 17 8 11 9 4 0 4 5 6 2 5 10 17 13 16
12 17 17 9 6 4 4 6 5 4 7 6 4 5 3 6 4 4 4 6 13 6 3 4 4 2 8 8 18 15 25 16 12 12 9 3 3 7 8 2 7 10 8 3 12
14 19 15 9 6 3 3 1 5 6 4 4 3 0 0 2 2 3 6 4 5 10 6 3 3 6 10 11 11 12 18 24 16 12 11 5 2 4 5 3 5 10 5 6 9
14 17 16 12 8 5 2 5 7 5 3 4 3 4 1 1 3 4 2 2 4 5 8 5 7 7 12 6 7 7 7 16 15 15 9 5 6 6 4 3 1 1 5 5 5
14 18 17 9 8 5 3 2 8 7 6 3 1 4 4 1 2 2 5 1 4 10 2 5 16 20 17 13 9 7 5 9 11 9 7 7 9 9 7 5 5 5 5 7 8
17 15 17 9 5 6 6 6 14 8 7 3 1 5 3 1 4 5 9 2 1 1 10 4 5 10 12 8 10 15 9 5 5 10 12 9 15 12 11 9 7 5 5 4 3
20 17 15 15 7 5 6 10 12 12 7 5 3 2 2 5 5 4 3 6 5 1 9 8 7 8 7 5 9 3 8 13 7 3 11 13 15 15 12 10 5 2 1 2 2

GFSSW_700_spd_141.txt.gz
Wind_Speed
6 5 4 3 3 3 3 3 3 4 5 6 9 11 12 12 12 13 16 14 11 8 6 4 3 6 3 6 14 13 14 22 22 17 13 12 12 6 3 4 9 11 13 15 18
5 5 4 3 3 3 3 4 3 3 3 5 7 10 12 12 12 13 16 16 13 9 6 4 2 3 1 11 14 13 18 20 22 15 15 15 10 4 4 5 7 13 16 13 19
4 3 3 3 3 3 3 3 3 3 3 4 6 8 11 12 13 13 14 16 15 11 7 6 3 4 1 13 13 11 18 19 18 13 11 12 10 5 7 4 6 7 10 13 19
6 5 4 4 4 4 3 3 3 3 3 3 4 7 10 13 10 13 14 14 16 13 10 7 4 3 6 11 8 11 16 16 16 12 11 13 11 8 3 7 13 11 10 12 15
7 6 5 5 5 5 4 3 3 2 2 2 3 5 9 13 13 10 14 14 16 16 12 11 9 9 9 10 5 6 13 8 11 14 12 13 14 11 9 9 11 11 13 11 15
8 6 5 5 5 4 5 4 4 2 2 2 2 4 8 13 13 8 13 15 17 17 14 17 13 9 8 5 7 12 6 11 16 10 14 16 19 17 10 9 14 11 12 16 19
8 7 6 5 5 5 6 6 5 3 1 1 2 4 9 13 13 7 10 14 18 19 16 19 15 11 6 6 6 8 6 10 13 12 18 16 19 19 16 13 14 13 15 19 17
8 7 6 5 4 4 5 6 6 5 3 1 2 5 7 9 9 9 7 12 15 18 18 19 16 12 8 7 4 2 2 3 6 16 20 17 11 20 20 19 16 17 16 17 16
7 6 5 4 3 3 6 7 7 5 5 5 6 7 9 12 11 11 11 8 12 16 15 18 19 13 8 4 0 3 3 3 3 11 11 21 14 13 26 23 19 19 21 17 16
6 4 3 3 3 4 6 7 8 8 10 11 8 7 8 5 8 9 11 10 10 14 15 20 22 14 11 8 1 1 2 3 2 3 21 13 17 11 14 28 20 21 21 19 14
5 4 3 3 3 4 6 8 8 9 6 10 9 12 11 7 5 9 9 9 10 15 18 22 21 19 15 9 6 6 4 4 6 8 6 7 12 18 14 27 26 24 22 21 16
5 3 2 2 3 5 9 12 15 14 15 13 13 10 11 11 7 5 11 11 11 14 17 20 22 19 13 11 6 3 0 5 1 2 6 6 10 21 20 29 35 26 25 21 21
5 3 2 1 2 6 12 14 18 19 14 10 8 9 10 10 8 5 8 9 11 14 15 17 12 17 11 9 8 6 3 5 2 5 1 6 3 6 14 23 31 31 27 24 19
5 3 1 1 5 9 11 12 9 9 8 10 6 7 8 9 8 7 5 6 6 10 12 11 12 9 15 11 8 8 6 5 6 6 5 8 1 7 8 34 29 31 32 27 24
5 2 1 4 6 10 8 7 5 3 3 4 6 8 7 6 4 2 4 6 5 7 11 9 12 10 10 14 12 10 7 3 1 7 12 9 4 5 2 29 36 28 32 31 25
4 0 3 6 9 9 8 6 5 2 4 3 3 4 4 5 2 4 5 6 4 3 9 14 10 10 12 9 17 10 5 6 3 5 5 5 12 8 16 14 32 26 30 31 29
2 2 5 10 10 8 7 6 4 3 4 4 4 6 3 1 5 5 6 6 5 4 5 8 15 10 9 17 20 15 8 2 1 3 3 5 7 10 10 14 25 29 22 31 29
0 2 7 14 11 6 3 4 3 5 5 2 3 3 2 3 1 6 3 3 6 5 5 4 7 17 17 17 20 20 13 6 4 3 2 6 6 3 5 2 11 24 32 30 31
2 5 13 15 11 6 6 4 4 4 3 3 3 4 3 3 4 6 3 3 3 3 5 3 1 16 18 20 21 21 18 10 5 1 3 4 4 7 8 6 8 16 25 28 25
4 10 14 16 10 8 8 5 4 3 3 3 2 1 3 5 3 7 3 4 4 7 6 3 1 4 17 24 18 11 20 9 5 4 2 2 3 2 3 7 8 14 13 18 25
5 14 17 14 11 13 8 6 5 5 3 2 3 1 3 3 6 5 5 7 7 6 9 10 5 1 10 14 16 16 18 10 8 5 2 2 0 3 2 5 5 15 25 15 8
6 14 20 16 11 10 7 8 6 3 5 1 2 2 4 6 4 5 3 4 9 2 2 5 5 5 6 13 18 20 17 16 8 7 2 4 4 4 5 9 11 15 19 18 21
9 14 20 15 10 8 6 5 8 6 6 5 3 3 1 2 1 3 7 2 4 9 3 3 7 8 7 6 16 18 17 21 13 10 17 9 3 6 6 8 9 15 15 11 12
9 13 17 13 11 10 5 6 8 8 4 4 6 5 2 1 1 3 2 1 4 4 8 2 2 8 9 8 7 6 14 25 23 9 10 13 8 5 8 12 10 10 10 9 10
12 14 17 12 10 10 7 8 11 8 2 4 1 3 3 1 1 2 5 3 2 2 2 8 9 11 12 10 6 3 3 5 20 17 11 12 10 6 8 11 9 4 3 5 7
16 14 18 13 9 13 9 8 13 10 5 5 1 4 4 1 3 3 3 3 4 3 3 9 2 7 12 15 15 11 11 5 1 8 8 11 11 10 9 9 8 6 4 4 5
17 18 15 18 11 10 10 10 12 13 8 8 6 5 4 5 7 4 8 7 5 1 1 5 11 8 5 7 4 9 7 9 7 2 4 9 9 13 15 12 10 7 5 3 3

GFSSW_700_spd_144.txt.gz
Wind_Speed
4 3 3 2 2 3 2 3 2 2 5 7 10 12 12 11 12 15 15 13 11 7 5 3 3 5 3 5 13 12 13 12 11 11 10 11 6 5 5 7 9 9 13 17 21
4 3 2 2 2 2 2 2 2 2 3 5 7 11 12 12 12 13 16 15 12 8 5 3 2 5 2 8 10 7 14 13 17 9 11 12 7 7 8 6 6 13 12 17 19
4 3 2 2 2 2 2 2 2 2 2 4 6 8 12 12 12 13 14 17 14 11 6 5 3 5 3 7 9 9 16 14 17 13 10 12 7 6 8 3 7 10 9 16 18
6 4 3 2 2 2 1 1 1 2 3 3 5 8 11 13 6 14 14 16 16 12 8 7 5 4 4 3 9 10 18 16 16 11 11 12 8 8 4 7 12 10 11 18 19
7 6 5 3 3 2 2 2 2 2 2 3 3 7 10 14 14 11 15 15 17 14 10 11 7 5 5 6 6 8 12 16 15 10 10 9 11 9 6 11 10 11 15 16 19
8 6 4 4 4 4 4 3 2 2 2 2 2 5 10 10 13 7 14 15 18 16 13 16 10 8 7 6 6 8 12 11 12 16 14 8 14 12 9 10 11 12 12 14 17
8 6 5 5 4 4 5 5 4 3 2 1 2 5 11 12 10 7 12 15 18 18 17 17 14 9 6 5 6 8 10 8 10 16 21 17 15 16 9 8 12 12 14 15 16
8 6 5 5 3 5 6 6 4 3 3 3 3 6 9 10 10 8 10 13 15 17 18 20 15 9 6 7 7 4 7 7 6 10 13 16 15 21 15 13 14 14 17 16 17
7 6 5 4 4 5 5 6 5 6 8 10 10 8 7 8 10 10 10 12 13 14 15 20 17 10 9 6 4 2 3 4 3 4 4 19 13 22 20 21 16 17 18 15 14
6 5 4 4 4 5 5 7 8 12 13 12 9 9 6 4 6 8 10 8 11 13 13 18 16 10 10 10 7 1 2 1 1 2 2 6 5 15 25 26 21 19 19 17 14
5 3 3 3 4 5 7 8 8 6 9 9 11 11 7 4 3 7 6 7 7 11 10 16 15 17 12 9 4 3 2 4 3 3 2 2 11 11 15 28 27 23 22 18 15
5 3 2 3 4 7 11 10 12 14 12 12 10 11 10 9 4 4 6 6 7 9 11 13 17 15 11 9 5 4 3 1 2 2 4 1 6 14 14 26 28 26 23 21 18
5 2 1 1 5 11 13 15 18 17 12 6 9 11 8 11 3 2 6 6 7 8 11 12 12 14 12 10 8 8 6 2 3 5 3 2 2 6 15 20 31 32 27 22 22
4 2 1 3 7 14 15 18 13 10 7 4 4 5 6 8 4 5 9 5 5 8 9 10 8 14 14 12 11 11 6 4 4 4 5 3 2 8 7 14 31 36 34 24 21
3 1 3 5 10 13 15 11 8 3 1 2 3 7 5 4 2 1 7 4 4 7 8 8 12 11 17 15 12 7 5 4 5 8 6 8 4 7 1 15 38 39 38 30 25
2 2 5 9 12 11 9 9 5 1 4 3 4 3 3 3 0 4 5 7 6 4 8 6 9 12 10 13 14 11 8 8 8 9 11 2 8 4 10 4 31 27 33 34 26
1 3 6 12 12 12 9 7 2 2 5 4 4 3 2 1 1 4 5 6 5 7 9 10 14 11 13 11 15 17 15 14 10 6 8 3 6 4 7 10 17 28 35 35 29
2 4 8 14 13 11 8 3 1 3 3 3 3 3 2 1 1 3 4 6 6 6 3 9 14 20 15 20 16 21 20 16 6 6 3 5 4 2 3 4 15 22 30 31 35
3 6 12 15 11 9 10 4 3 3 4 1 1 4 4 3 2 5 5 5 5 7 5 4 6 10 16 16 16 17 18 12 13 7 9 5 3 2 1 1 2 16 28 36 37
5 8 16 15 12 11 6 4 5 7 3 2 2 2 2 2 4 7 4 2 4 7 7 0 4 7 15 14 16 10 13 12 13 4 8 7 2 1 3 4 7 8 26 35 29
6 11 16 16 13 13 5 5 6 7 4 1 2 1 2 3 5 6 2 0 1 5 8 5 6 8 12 19 16 15 14 16 5 10 4 2 4 5 7 5 8 12 12 15 25
6 7 17 17 11 13 7 10 10 5 6 1 1 1 2 3 6 5 2 1 4 3 4 6 8 9 11 12 15 14 15 17 12 2 1 3 6 10 14 2 3 24 18 11 18
8 13 21 19 10 12 10 9 9 5 5 3 2 2 1 2 2 5 4 3 2 4 2 4 8 12 11 7 10 14 12 13 13 11 6 4 4 6 11 4 2 23 26 22 21
8 7 21 20 16 12 10 9 9 10 6 4 5 5 3 1 1 1 3 4 5 3 5 2 6 12 5 7 10 9 7 16 14 15 11 6 3 9 4 10 12 13 16 18 19
12 12 18 16 15 13 13 12 10 9 6 2 1 4 4 3 3 3 4 4 3 4 3 1 1 1 6 6 4 6 10 10 16 19 9 8 8 10 17 12 13 11 14 14 11
17 15 18 14 20 17 13 11 14 11 7 5 3 4 5 3 2 5 5 5 7 4 5 9 4 5 7 5 5 8 2 10 5 9 8 8 13 12 12 12 13 12 10 8 6
14 19 16 16 16 13 17 14 14 14 12 9 6 3 4 6 5 6 6 8 8 5 3 5 10 12 8 8 3 3 6 5 5 4 8 9 10 12 14 13 11 11 9 7 6

GFSSW_700_spd_147.txt.gz
Wind_Speed
4 4 3 3 3 3 3 2 2 4 6 7 10 11 11 11 12 15 15 15 10 6 4 3 2 2 2 1 6 8 12 8 8 12 14 10 9 8 11 13 10 6 14 18 21
4 3 3 3 3 3 3 3 3 3 5 7 8 11 11 11 11 12 17 16 12 8 5 5 3 1 4 2 8 12 13 7 5 8 14 9 8 13 10 8 10 17 19 19 20
4 3 3 3 2 2 3 3 3 3 4 5 8 9 12 10 8 13 14 16 13 9 5 7 4 2 6 7 4 7 16 5 3 13 8 9 7 8 7 9 13 17 20 20 20
6 4 3 3 2 2 2 3 4 4 3 4 6 8 11 11 4 15 14 15 14 11 8 8 5 3 5 4 6 5 15 13 6 10 9 8 8 9 2 13 13 16 19 20 19
7 5 5 4 3 3 3 3 2 3 3 2 4 7 11 13 9 7 14 13 15 13 11 7 4 2 5 4 7 9 15 19 10 12 18 9 8 8 9 13 14 17 19 19 18
7 6 5 4 3 3 3 4 3 3 2 1 3 6 11 6 13 7 13 14 15 14 10 9 6 5 3 4 5 4 7 15 17 12 6 11 12 7 12 12 15 15 16 16 16
7 6 5 4 4 4 4 4 3 3 1 1 3 7 13 13 10 8 10 13 16 16 10 10 7 1 3 5 4 5 6 9 14 17 13 15 12 10 13 11 13 13 15 15 16
7 6 5 4 4 4 4 5 4 4 4 4 5 9 4 8 8 8 9 13 14 15 14 13 13 5 4 6 9 7 9 10 7 12 18 17 15 21 20 17 13 15 15 15 16
7 6 4 4 4 4 4 5 7 9 12 12 11 13 1 4 5 8 8 7 13 14 15 17 13 5 7 13 13 12 6 8 3 6 7 13 13 23 19 23 17 15 15 14 16
7 5 4 4 3 4 6 9 11 12 14 13 10 10 3 4 6 7 6 8 9 10 13 18 13 9 12 14 16 5 8 9 7 3 6 3 17 20 20 23 20 15 19 17 17
6 4 3 3 2 4 8 13 8 6 6 3 3 3 6 4 2 5 7 6 7 10 11 14 16 17 15 13 4 4 2 5 9 2 7 3 9 16 22 20 28 26 23 16 16
7 4 2 1 2 6 6 5 14 11 6 5 6 4 5 4 1 6 7 6 8 9 12 12 19 15 11 11 9 9 6 5 1 4 5 7 7 9 13 25 29 30 26 19 15
6 3 2 1 5 8 10 15 15 14 9 3 2 2 2 6 1 5 10 5 7 9 13 15 11 13 12 11 11 12 9 2 2 5 4 5 7 11 15 26 28 34 24 24 25
6 3 3 3 8 12 14 15 10 9 7 1 1 1 3 5 0 3 10 4 7 9 10 14 12 11 16 16 13 15 14 7 5 5 5 8 2 11 12 19 29 36 31 23 28
5 3 4 5 9 13 17 9 5 1 5 3 2 3 3 1 3 1 7 5 6 8 10 12 10 14 16 17 13 10 7 8 7 11 12 11 6 4 17 21 33 31 35 33 27
4 3 5 7 12 12 17 8 2 5 2 2 2 1 3 2 1 4 5 7 4 6 10 10 10 12 14 16 16 14 11 11 13 16 18 5 9 6 13 15 17 38 41 36 20
3 3 6 10 14 11 10 10 7 8 3 3 4 3 2 1 1 2 3 6 7 8 13 11 13 12 14 13 16 17 16 21 16 12 5 8 7 3 7 6 7 38 39 40 29
4 5 7 12 12 12 11 2 9 1 2 4 4 4 4 3 4 2 5 9 7 8 6 10 15 17 15 19 16 18 22 20 5 3 7 5 8 7 2 7 8 18 27 36 34
4 5 9 14 14 13 10 11 1 2 1 3 3 5 10 4 4 4 6 9 3 7 12 3 10 4 17 14 18 15 21 18 9 18 13 12 6 9 6 6 13 22 27 30 36
4 5 10 15 13 11 5 9 1 3 3 1 6 3 5 4 6 7 8 1 6 8 9 6 10 5 13 14 17 16 17 10 19 4 5 6 9 12 5 1 4 14 29 30 38
4 3 11 15 13 12 9 5 4 4 3 2 1 4 4 5 8 7 3 1 4 4 8 9 12 5 12 17 17 17 12 17 8 1 12 5 3 8 7 4 8 8 18 25 35
7 4 12 17 13 9 11 7 8 5 3 3 1 3 4 3 6 5 1 3 2 4 10 9 14 12 11 12 18 18 16 18 18 10 8 26 6 5 8 5 8 12 15 18 34
7 9 16 21 15 13 10 7 7 5 5 3 3 4 3 4 4 6 4 3 1 3 6 6 13 15 5 23 16 19 18 17 10 7 19 20 3 2 6 6 10 16 12 12 12
8 5 9 23 16 12 14 11 10 9 6 5 5 6 5 5 3 5 7 6 7 7 8 8 14 10 13 21 14 20 23 6 14 7 10 19 15 13 8 3 3 19 20 12 13
12 8 10 14 21 18 11 10 13 10 8 6 4 5 6 6 5 6 6 9 9 11 11 10 13 5 3 11 15 15 17 5 1 20 20 14 8 7 7 3 5 3 11 12 20
11 13 11 14 15 20 18 16 15 13 9 10 6 4 5 6 5 6 6 10 12 9 10 13 12 16 11 5 19 5 3 7 10 14 11 13 12 7 8 12 9 4 8 8 12
19 20 18 14 17 19 20 16 15 15 12 10 6 7 6 6 5 9 9 11 11 11 10 10 17 15 17 9 19 16 6 3 16 13 16 20 16 8 4 5 7 11 8 5 9